Time,TemperatureF,DewpointF,PressureIn,WindDirection,WindDirectionDegrees,WindSpeedMPH,WindSpeedGustMPH,Humidity,HourlyPrecipIn,Conditions,Clouds,dailyrainin,SoftwareType,DateUTC
2017-06-29 00:02:00,66.6,58.8,30.11,South,172,0.0,0.0,76,0.00,,,0.00,meteohub,2017-06-29 04:02:00,
2017-06-29 00:07:00,66.4,59.0,30.12,South,172,0.0,0.0,77,0.00,,,0.00,meteohub,2017-06-29 04:07:00,
2017-06-29 00:12:00,65.8,58.8,30.12,South,172,0.0,0.0,78,0.00,,,0.00,meteohub,2017-06-29 04:12:00,
2017-06-29 00:17:00,65.3,58.6,30.12,South,172,0.0,0.0,79,0.00,,,0.00,meteohub,2017-06-29 04:17:00,
2017-06-29 00:22:00,64.9,58.3,30.12,South,172,0.0,0.0,79,0.00,,,0.00,meteohub,2017-06-29 04:22:00,
2017-06-29 00:27:00,64.8,58.5,30.12,South,172,0.0,0.0,80,0.00,,,0.00,meteohub,2017-06-29 04:27:00,
2017-06-29 00:32:00,64.6,58.3,30.12,South,172,0.0,0.0,80,0.00,,,0.00,meteohub,2017-06-29 04:32:00,
2017-06-29 00:37:00,64.4,58.5,30.12,South,172,0.0,0.0,81,0.00,,,0.00,meteohub,2017-06-29 04:37:00,
2017-06-29 00:42:00,64.2,58.3,30.12,SSE,167,0.0,0.0,81,0.00,,,0.00,meteohub,2017-06-29 04:42:00,
2017-06-29 00:47:00,64.2,58.3,30.12,SSE,160,0.0,0.0,81,0.00,,,0.00,meteohub,2017-06-29 04:47:00,
2017-06-29 00:52:00,64.2,58.3,30.12,SE,139,0.0,0.0,81,0.00,,,0.00,meteohub,2017-06-29 04:52:00,
2017-06-29 00:57:00,64.6,58.6,30.12,SSE,155,0.0,0.0,81,0.00,,,0.00,meteohub,2017-06-29 04:57:00,
2017-06-29 01:02:00,64.8,58.8,30.12,SE,146,0.0,0.0,81,0.00,,,0.00,meteohub,2017-06-29 05:02:00,
2017-06-29 01:07:00,64.9,59.0,30.11,SSE,151,0.0,0.0,81,0.00,,,0.00,meteohub,2017-06-29 05:07:00,
2017-06-29 01:12:00,64.9,58.6,30.12,SSE,153,0.0,0.0,80,0.00,,,0.00,meteohub,2017-06-29 05:12:00,
2017-06-29 01:17:00,64.9,58.6,30.11,SSE,148,0.0,0.0,80,0.00,,,0.00,meteohub,2017-06-29 05:17:00,
2017-06-29 01:22:00,64.9,58.6,30.11,SSE,148,0.0,0.0,80,0.00,,,0.00,meteohub,2017-06-29 05:22:00,
2017-06-29 01:27:00,65.1,58.8,30.11,SSE,150,0.0,0.0,80,0.00,,,0.00,meteohub,2017-06-29 05:27:00,
2017-06-29 01:32:00,65.1,58.8,30.11,SSE,149,0.0,0.0,80,0.00,,,0.00,meteohub,2017-06-29 05:32:00,
2017-06-29 01:37:00,65.1,58.8,30.10,SE,143,0.0,0.0,80,0.00,,,0.00,meteohub,2017-06-29 05:37:00,
2017-06-29 01:42:00,65.1,58.8,30.10,SSE,151,0.0,0.0,80,0.00,,,0.00,meteohub,2017-06-29 05:42:00,
2017-06-29 01:47:00,65.5,59.2,30.10,South,174,0.0,0.0,80,0.00,,,0.00,meteohub,2017-06-29 05:47:00,
2017-06-29 01:52:00,65.5,58.8,30.10,SSE,150,0.0,0.0,79,0.00,,,0.00,meteohub,2017-06-29 05:52:00,
2017-06-29 01:57:00,65.7,59.0,30.10,SSE,150,0.0,0.0,79,0.00,,,0.00,meteohub,2017-06-29 05:57:00,
2017-06-29 02:02:00,65.7,59.0,30.10,SSE,150,0.0,0.0,79,0.00,,,0.00,meteohub,2017-06-29 06:02:00,
2017-06-29 02:07:00,65.7,59.0,30.10,SSE,165,0.0,0.0,79,0.00,,,0.00,meteohub,2017-06-29 06:07:00,
2017-06-29 02:12:00,65.8,58.8,30.10,SSE,155,0.0,0.0,78,0.00,,,0.00,meteohub,2017-06-29 06:12:00,
2017-06-29 02:17:00,66.2,59.2,30.09,SE,146,0.0,2.0,78,0.00,,,0.00,meteohub,2017-06-29 06:17:00,
2017-06-29 02:22:00,66.4,59.0,30.09,SSE,150,0.0,4.0,77,0.00,,,0.00,meteohub,2017-06-29 06:22:00,
2017-06-29 02:27:00,66.6,59.2,30.09,South,172,0.0,4.0,77,0.00,,,0.00,meteohub,2017-06-29 06:27:00,
2017-06-29 02:32:00,66.7,59.4,30.09,SSE,158,0.0,4.0,77,0.00,,,0.00,meteohub,2017-06-29 06:32:00,
2017-06-29 02:38:00,66.7,59.0,30.09,SSE,165,0.0,0.0,76,0.00,,,0.00,meteohub,2017-06-29 06:38:00,
2017-06-29 02:43:00,66.7,59.0,30.09,South,177,0.0,0.0,76,0.00,,,0.00,meteohub,2017-06-29 06:43:00,
2017-06-29 02:48:00,66.7,59.0,30.09,SSE,162,0.0,0.0,76,0.00,,,0.00,meteohub,2017-06-29 06:48:00,
2017-06-29 02:53:00,66.9,58.8,30.09,SSE,149,0.0,0.0,75,0.00,,,0.00,meteohub,2017-06-29 06:53:00,
2017-06-29 02:58:00,66.9,58.8,30.09,SE,141,0.0,7.0,75,0.00,,,0.00,meteohub,2017-06-29 06:58:00,
2017-06-29 03:03:00,67.1,58.8,30.09,SSE,165,0.0,7.0,75,0.00,,,0.00,meteohub,2017-06-29 07:03:00,
2017-06-29 03:08:00,67.3,58.6,30.09,SSE,165,0.0,7.0,74,0.00,,,0.00,meteohub,2017-06-29 07:08:00,
2017-06-29 03:13:00,67.3,58.6,30.09,SE,143,0.0,6.0,74,0.00,,,0.00,meteohub,2017-06-29 07:13:00,
2017-06-29 03:18:00,67.3,58.6,30.09,SSE,165,0.0,5.0,74,0.00,,,0.00,meteohub,2017-06-29 07:18:00,
2017-06-29 03:23:00,67.3,58.6,30.09,South,191,1.0,5.0,74,0.00,,,0.00,meteohub,2017-06-29 07:23:00,
2017-06-29 03:28:00,67.3,58.6,30.09,SSE,156,0.0,5.0,74,0.00,,,0.00,meteohub,2017-06-29 07:28:00,
2017-06-29 03:33:00,67.3,58.6,30.09,ENE,75,0.0,7.0,74,0.00,,,0.00,meteohub,2017-06-29 07:33:00,
2017-06-29 03:38:00,67.1,58.5,30.08,SSE,150,0.0,7.0,74,0.00,,,0.00,meteohub,2017-06-29 07:38:00,
2017-06-29 03:43:00,66.9,58.3,30.08,South,187,0.0,7.0,74,0.00,,,0.00,meteohub,2017-06-29 07:43:00,
2017-06-29 03:48:00,66.7,58.6,30.08,SSE,163,0.0,0.0,75,0.00,,,0.00,meteohub,2017-06-29 07:48:00,
2017-06-29 03:53:00,66.7,58.6,30.09,SSW,200,0.0,0.0,75,0.00,,,0.00,meteohub,2017-06-29 07:53:00,
2017-06-29 03:58:00,66.9,58.3,30.08,South,179,2.0,4.0,74,0.00,,,0.00,meteohub,2017-06-29 07:58:00,
2017-06-29 04:03:00,66.9,58.3,30.08,SSE,150,0.0,5.0,74,0.00,,,0.00,meteohub,2017-06-29 08:03:00,
2017-06-29 04:08:00,66.9,58.3,30.08,South,170,0.0,5.0,74,0.00,,,0.00,meteohub,2017-06-29 08:08:00,
2017-06-29 04:13:00,66.9,58.8,30.08,SSE,153,0.0,4.0,75,0.00,,,0.00,meteohub,2017-06-29 08:13:00,
2017-06-29 04:18:00,66.9,58.3,30.08,SE,143,0.0,2.0,74,0.00,,,0.00,meteohub,2017-06-29 08:18:00,
2017-06-29 04:23:00,67.3,58.6,30.08,SSW,195,0.0,6.0,74,0.00,,,0.00,meteohub,2017-06-29 08:23:00,
2017-06-29 04:28:00,67.5,58.5,30.08,SE,139,0.0,6.0,73,0.00,,,0.00,meteohub,2017-06-29 08:28:00,
2017-06-29 04:33:00,67.6,58.6,30.08,SSE,157,0.0,6.0,73,0.00,,,0.00,meteohub,2017-06-29 08:33:00,
2017-06-29 04:38:00,67.6,58.6,30.08,South,188,0.0,6.0,73,0.00,,,0.00,meteohub,2017-06-29 08:38:00,
2017-06-29 04:43:00,67.5,58.5,30.08,SSE,160,0.0,2.0,73,0.00,,,0.00,meteohub,2017-06-29 08:43:00,
2017-06-29 04:45:00,67.5,58.5,30.08,SSE,155,0.0,2.0,73,0.00,,,0.00,meteohub,2017-06-29 08:45:00,
2017-06-29 04:50:00,67.5,58.5,30.08,South,180,0.0,2.0,73,0.00,,,0.00,meteohub,2017-06-29 08:50:00,
2017-06-29 04:55:00,67.3,58.3,30.08,South,181,0.0,0.0,73,0.00,,,0.00,meteohub,2017-06-29 08:55:00,
2017-06-29 05:00:00,67.3,58.6,30.08,SSE,150,0.0,0.0,74,0.00,,,0.00,meteohub,2017-06-29 09:00:00,
2017-06-29 05:05:00,67.3,58.6,30.08,South,176,0.0,3.0,74,0.00,,,0.00,meteohub,2017-06-29 09:05:00,
2017-06-29 05:10:00,67.1,58.5,30.08,SE,138,0.0,7.0,74,0.00,,,0.00,meteohub,2017-06-29 09:10:00,
2017-06-29 05:15:00,67.1,58.5,30.08,SE,141,0.0,7.0,74,0.00,,,0.00,meteohub,2017-06-29 09:15:00,
2017-06-29 05:16:00,67.1,58.5,30.08,SE,129,0.0,7.0,74,0.00,,,0.00,meteohub,2017-06-29 09:16:00,
2017-06-29 05:21:00,66.9,58.3,30.08,SSE,153,0.0,7.0,74,0.00,,,0.00,meteohub,2017-06-29 09:21:00,
2017-06-29 05:26:00,66.9,58.3,30.08,South,172,0.0,5.0,74,0.00,,,0.00,meteohub,2017-06-29 09:26:00,
2017-06-29 05:31:00,66.9,58.3,30.08,South,176,0.0,6.0,74,0.00,,,0.00,meteohub,2017-06-29 09:31:00,
2017-06-29 05:36:00,66.9,58.3,30.09,SSW,194,0.0,6.0,74,0.00,,,0.00,meteohub,2017-06-29 09:36:00,
2017-06-29 05:41:00,66.9,58.3,30.09,SSW,204,0.0,6.0,74,0.00,,,0.00,meteohub,2017-06-29 09:41:00,
2017-06-29 05:42:00,66.9,58.3,30.09,SSE,151,0.0,6.0,74,0.00,,,0.00,meteohub,2017-06-29 09:42:00,
2017-06-29 05:47:00,66.9,58.3,30.09,South,181,0.0,4.0,74,0.00,,,0.00,meteohub,2017-06-29 09:47:00,
2017-06-29 05:52:00,66.9,58.3,30.09,South,178,0.0,1.0,74,0.00,,,0.00,meteohub,2017-06-29 09:52:00,
2017-06-29 05:57:00,66.9,58.3,30.09,SSE,149,0.0,4.0,74,0.00,,,0.00,meteohub,2017-06-29 09:57:00,
2017-06-29 06:02:00,66.7,58.6,30.09,South,181,0.0,4.0,75,0.00,,,0.00,meteohub,2017-06-29 10:02:00,
2017-06-29 06:06:00,66.7,58.6,30.09,South,180,0.0,4.0,75,0.00,,,0.00,meteohub,2017-06-29 10:06:00,
2017-06-29 06:11:00,66.7,58.6,30.09,SSE,148,0.0,0.0,75,0.00,,,0.00,meteohub,2017-06-29 10:11:00,
2017-06-29 06:16:00,66.7,58.6,30.09,SSE,160,0.0,0.0,75,0.00,,,0.00,meteohub,2017-06-29 10:16:00,
2017-06-29 06:21:00,66.9,58.3,30.09,SSE,162,0.0,4.0,74,0.00,,,0.00,meteohub,2017-06-29 10:21:00,
2017-06-29 06:26:00,67.1,58.5,30.09,South,184,0.0,4.0,74,0.00,,,0.00,meteohub,2017-06-29 10:26:00,
2017-06-29 06:31:00,67.3,58.6,30.09,SSE,167,0.0,8.0,74,0.00,,,0.00,meteohub,2017-06-29 10:31:00,
2017-06-29 06:36:00,67.5,58.8,30.09,SSE,153,0.0,8.0,74,0.00,,,0.00,meteohub,2017-06-29 10:36:00,
2017-06-29 06:41:00,67.5,58.5,30.09,SSE,162,0.0,8.0,73,0.00,,,0.00,meteohub,2017-06-29 10:41:00,
2017-06-29 06:42:00,67.6,58.6,30.09,SSE,162,0.0,8.0,73,0.00,,,0.00,meteohub,2017-06-29 10:42:00,
2017-06-29 06:47:00,67.6,58.6,30.09,SSW,195,0.0,8.0,73,0.00,,,0.00,meteohub,2017-06-29 10:47:00,
2017-06-29 06:52:00,67.8,58.8,30.09,SE,141,5.0,12.0,73,0.00,,,0.00,meteohub,2017-06-29 10:52:00,
2017-06-29 06:57:00,67.8,58.8,30.09,South,174,5.0,14.0,73,0.00,,,0.00,meteohub,2017-06-29 10:57:00,
2017-06-29 07:02:00,67.8,58.8,30.09,South,172,6.0,14.0,73,0.00,,,0.00,meteohub,2017-06-29 11:02:00,
2017-06-29 07:07:00,68.2,59.2,30.09,SE,146,6.0,14.0,73,0.00,,,0.00,meteohub,2017-06-29 11:07:00,
2017-06-29 07:12:00,68.4,59.4,30.09,SSE,162,5.0,13.0,73,0.00,,,0.00,meteohub,2017-06-29 11:12:00,
2017-06-29 07:17:00,68.7,59.7,30.09,SSW,204,2.0,14.0,73,0.00,,,0.00,meteohub,2017-06-29 11:17:00,
2017-06-29 07:22:00,69.1,60.1,30.09,South,179,3.0,14.0,73,0.00,,,0.00,meteohub,2017-06-29 11:22:00,
2017-06-29 07:27:00,69.3,60.3,30.09,South,174,7.0,14.0,73,0.00,,,0.00,meteohub,2017-06-29 11:27:00,
2017-06-29 07:32:00,69.3,60.3,30.09,SSW,210,12.0,13.0,73,0.00,,,0.00,meteohub,2017-06-29 11:32:00,
2017-06-29 07:37:00,69.4,60.8,30.08,SSE,159,2.0,14.0,74,0.00,,,0.00,meteohub,2017-06-29 11:37:00,
2017-06-29 07:42:00,69.6,61.0,30.08,South,176,2.0,14.0,74,0.00,,,0.00,meteohub,2017-06-29 11:42:00,
2017-06-29 07:47:00,70.0,61.3,30.08,South,170,6.0,14.0,74,0.00,,,0.00,meteohub,2017-06-29 11:47:00,
2017-06-29 07:52:00,70.3,61.7,30.08,SSW,197,6.0,14.0,74,0.00,,,0.00,meteohub,2017-06-29 11:52:00,
2017-06-29 07:57:00,70.3,61.7,30.08,SSW,198,3.0,14.0,74,0.00,,,0.00,meteohub,2017-06-29 11:57:00,
2017-06-29 08:02:00,70.3,61.7,30.08,South,181,7.0,13.0,74,0.00,,,0.00,meteohub,2017-06-29 12:02:00,
2017-06-29 08:04:00,70.5,61.9,30.08,South,186,8.0,13.0,74,0.00,,,0.00,meteohub,2017-06-29 12:04:00,
2017-06-29 08:09:00,70.7,62.4,30.08,South,186,3.0,12.0,75,0.00,,,0.00,meteohub,2017-06-29 12:09:00,
2017-06-29 08:14:00,71.2,62.6,30.07,South,181,6.0,12.0,74,0.00,,,0.00,meteohub,2017-06-29 12:14:00,
2017-06-29 08:19:00,71.6,63.0,30.07,SE,145,11.0,12.0,74,0.00,,,0.00,meteohub,2017-06-29 12:19:00,
2017-06-29 08:24:00,71.8,63.0,30.07,SE,143,8.0,14.0,74,0.00,,,0.00,meteohub,2017-06-29 12:24:00,
2017-06-29 08:29:00,71.8,63.0,30.07,SSE,167,15.0,15.0,74,0.00,,,0.00,meteohub,2017-06-29 12:29:00,
2017-06-29 08:34:00,72.0,63.1,30.07,SSE,167,8.0,15.0,74,0.00,,,0.00,meteohub,2017-06-29 12:34:00,
2017-06-29 08:39:00,72.0,63.1,30.07,South,176,9.0,16.0,74,0.00,,,0.00,meteohub,2017-06-29 12:39:00,